Location: Bakov nad Jizerou
(50.4784°N, 14.9394°E)
Time: 07:17:20
(UTC+00:00)

YAOGAN 1 DEB - Visible Passes

Search period start: 29 January 2022 00:00
Search period end: 08 February 2022 00:00
Orbit: 587 x 620 km, 98.0° (Epoch: 28 January)

Date Brightness Start Highest point End Pass type
(mag) Time Alt. Az. Time Alt. Az. Time Alt. Az.
29 Jan ? 05:38:32 10° ENE 05:40:35 13° E 05:42:39 10° ESE visible
29 Jan ? 16:35:02 10° ESE 16:38:09 20° ENE 16:41:17 10° NNE visible
29 Jan ? 18:09:29 10° S 18:13:37 52° W 18:17:45 10° NNW visible
30 Jan ? 05:50:03 10° NE 05:52:52 17° E 05:55:39 10° SE visible
30 Jan ? 16:46:43 10° ESE 16:50:11 25° ENE 16:53:40 10° N visible
30 Jan ? 18:21:49 10° SSW 18:25:48 40° W 18:29:47 10° NNW visible
31 Jan ? 06:01:48 10° NE 06:05:06 22° E 06:08:23 10° SE visible
31 Jan ? 16:58:28 10° SE 17:02:14 32° ENE 17:05:59 10° N visible
31 Jan ? 18:34:14 10° SSW 18:38:00 31° W 18:41:45 10° NNW visible
01 Feb ? 17:10:20 10° SE 17:14:17 41° ENE 17:18:14 10° N visible
01 Feb ? 18:46:46 10° SSW 18:50:12 24° W 18:53:39 10° NW visible
02 Feb ? 17:22:15 10° SSE 17:26:22 53° ENE 17:30:27 10° N visible
02 Feb ? 18:59:28 10° SW 19:02:26 19° W 19:05:25 10° NW visible
03 Feb ? 17:34:16 10° SSE 17:38:27 70° ENE 17:42:38 10° N visible
03 Feb ? 19:12:22 10° WSW 19:14:41 14° W 19:17:01 10° NW visible
04 Feb ? 17:46:21 10° SSE 17:50:34 89° WSW 17:54:46 10° NNW visible
04 Feb ? 19:25:51 10° WSW 19:26:58 11° W 19:28:05 10° WNW visible
05 Feb ? 05:28:59 10° ENE 05:29:32 10° E 05:30:05 10° E visible
05 Feb ? 17:58:30 10° S 18:02:41 69° WSW 18:06:52 10° NNW visible
06 Feb ? 05:39:41 10° ENE 05:41:49 14° E 05:43:56 10° ESE visible
06 Feb ? 16:36:16 10° ESE 16:39:22 20° ENE 16:42:28 10° NNE visible
06 Feb ? 18:10:44 10° S 18:14:49 51° W 18:18:56 10° NNW visible
07 Feb ? 05:51:13 10° NE 05:54:03 18° E 05:56:54 10° SE visible
07 Feb ? 16:47:55 10° ESE 16:51:22 25° ENE 16:54:49 10° N visible
07 Feb ? 18:23:02 10° SSW 18:26:59 39° W 18:30:56 10° NNW visible
